This is the latest recevied weather packets stored in our database for station/object W4DEX-2. If no packets are shown the sender has not sent any weather packets the latest 10 day(s).
| Time | Temp. | Humidity | Pressure | Rain* | Wind** | Luminosity | Snow |
|---|---|---|---|---|---|---|---|
| 1778249102 | 16.11° C | 54% | 1017.6 hPa | 0 mm | 4.47 m/s, 163° | - | - |
| 1778248802 | 16.11° C | 56% | 1017.5 hPa | 0 mm | 4.47 m/s, 163° | - | - |
| 1778248506 | 15.56° C | 56% | 1017.5 hPa | 0 mm | 4.47 m/s, 163° | - | - |
| 1778248202 | 15.56° C | 63% | 1017.4 hPa | 0 mm | 4.47 m/s, 163° | - | - |
| 1778247602 | 16.11° C | 69% | 1017.3 hPa | 0 mm | 4.47 m/s, 163° | - | - |
| 1778247302 | 15.56° C | 60% | 1017.4 hPa | 0 mm | 4.47 m/s, 163° | - | - |
| 1778247002 | 14.44° C | 61% | 1017.3 hPa | 0 mm | 4.47 m/s, 163° | - | - |
| 1778246702 | 13.89° C | 64% | 1017.3 hPa | 0 mm | 4.47 m/s, 163° | - | - |
| 1778246403 | 13.89° C | 64% | 1017.4 hPa | 0 mm | 4.47 m/s, 163° | - | - |
| 1778246103 | 13.89° C | 65% | 1017 hPa | 0 mm | 4.47 m/s, 163° | - | - |
| 1778245802 | 13.89° C | 66% | 1017.2 hPa | 0 mm | 4.47 m/s, 163° | - | - |
| 1778245202 | 12.78° C | 68% | 1017.1 hPa | 0 mm | 4.47 m/s, 163° | - | - |
| 1778244903 | 12.78° C | 69% | 1016.9 hPa | 0 mm | 4.47 m/s, 163° | - | - |
| 1778244603 | 12.78° C | 70% | 1016.8 hPa | 0 mm | 4.47 m/s, 163° | - | - |
| 1778244002 | 12.22° C | 68% | 1016.8 hPa | 0 mm | 4.47 m/s, 163° | - | - |
| 1778243702 | 12.22° C | 70% | 1016.6 hPa | 0 mm | 4.47 m/s, 163° | - | - |
| 1778243403 | 12.22° C | 72% | 1016.8 hPa | 0 mm | 4.47 m/s, 163° | - | - |
| 1778242802 | 11.67° C | 73% | 1016.8 hPa | 0 mm | 4.47 m/s, 163° | - | - |
| 1778242502 | 11.67° C | 74% | 1016.8 hPa | 0 mm | 4.47 m/s, 163° | - | - |
| 1778242202 | 11.11° C | 77% | 1016.5 hPa | 0 mm | 4.47 m/s, 163° | - | - |
| 1778241902 | 11.11° C | 77% | 1016.6 hPa | 0 mm | 4.47 m/s, 163° | - | - |
| 1778241603 | 11.11° C | 78% | 1016.4 hPa | 0 mm | 4.47 m/s, 163° | - | - |
| 1778241302 | 11.11° C | 80% | 1016.4 hPa | 0 mm | 4.47 m/s, 163° | - | - |
| 1778241002 | 11.11° C | 79% | 1016.3 hPa | 0 mm | 4.47 m/s, 163° | - | - |
| 1778240702 | 10.56° C | 80% | 1016.2 hPa | 0 mm | 4.47 m/s, 163° | - | - |
* Rain latest hour (hover to see other rain measurements)
** Current wind speed in m/s (hover to see current wind gust speed)